Location: ????????
(55.8351°N, 38.7040°E)
Time: 19:52:05
(UTC+00:00)

CZ-4 R/B - Pass Details

Date: 14 April 2024
Orbit: 677 x 749 km, 98.6° (Epoch: 17 May)

Event Time Altitude Azimuth Distance (km) Brightness Sun altitude
Rises 01:21:08 0° 15° (NNE) 3,140 7.9 -8.6°
Reaches altitude 10° 01:23:26 10° 12° (NNE) 2,204 7.0 -8.3°
Maximum altitude 01:28:12 65° 292° (WNW) 777 3.9 -7.7°
Drops below altitude 10° 01:32:51 10° 211° (SSW) 2,146 5.8 -7.1°
Enters shadow 01:34:08 - 209° (SSW) 2,663 6.3 -7.0°
